Roda de Ter - l'Esquerda





Hora UTC 15:45
Temperatura 7.6 ºC
Humedad 80.0 %
Presión 1015.2 hPa
Pluja 0.0 mm
Velocidad viento 0.0 km/h
Dirección viento NW

Datos diarios 2021-12-04



Hora UTC (invierno +1h; verano +2h)
Temperatura (ºC) Humedad (%) Presión (hPa) Velocidad viento (km/h) Precipitación (mm)
Hora UTC Aire Humedad Presión Vel. Dir. Vel. Max Dir. Intent. máx 5 min.
00:05 1.2 86.0 1022.0 0.0 S 0.0 0.0
00:10 1.3 86.0 1021.8 1.6 S 3.2 0.0
00:15 1.3 86.0 1021.8 1.6 S 3.2 0.0
00:20 1.3 86.0 1021.5 1.6 S 3.2 0.0
00:25 1.1 86.0 1021.4 3.2 S 3.2 0.0
00:30 0.8 86.0 1021.5 0.0 S 4.8 0.0
00:35 0.8 86.0 1021.4 0.0 SSE 3.2 0.0
00:40 0.8 87.0 1021.2 1.6 S 3.2 0.0
00:45 0.8 87.0 1021.1 1.6 S 3.2 0.0
00:50 0.6 86.0 1021.0 0.0 S 3.2 0.0
00:55 0.4 86.0 1021.0 3.2 S 3.2 0.0
01:00 0.2 86.0 1020.9 1.6 S 3.2 0.0
01:05 0.2 87.0 1020.9 1.6 S 3.2 0.0
01:10 0.3 87.0 1020.9 1.6 S 3.2 0.0
01:15 0.2 87.0 1020.8 0.0 S 3.2 0.0
01:20 0.2 87.0 1020.6 0.0 S 3.2 0.0
01:25 0.1 87.0 1020.8 1.6 S 4.8 0.0
01:30 0.0 87.0 1020.8 1.6 S 4.8 0.0
01:35 0.1 88.0 1020.7 3.2 S 3.2 0.0
01:40 0.3 88.0 1020.8 1.6 S 3.2 0.0
01:45 0.3 88.0 1020.8 1.6 S 6.4 0.0
01:50 0.1 87.0 1020.8 1.6 S 6.4 0.0
01:55 0.1 88.0 1020.8 3.2 S 3.2 0.0
02:00 -0.1 88.0 1020.7 3.2 S 3.2 0.0
02:05 -0.3 87.0 1020.8 3.2 ENE 4.8 0.0
02:10 -0.3 88.0 1020.7 3.2 ENE 4.8 0.0
02:15 -0.3 88.0 1020.6 4.8 NE 6.4 0.0
02:20 -0.4 88.0 1020.5 1.6 NE 6.4 0.0
02:25 -0.4 88.0 1020.6 0.0 NE 6.4 0.0
02:30 -0.6 88.0 1020.9 0.0 NE 4.8 0.0
02:35 -0.6 88.0 1020.9 0.0 NE 3.2 0.0
02:40 -0.4 89.0 1020.7 1.6 NE 3.2 0.0
02:45 -0.4 89.0 1020.6 1.6 NE 3.2 0.0
02:50 -0.4 89.0 1020.5 0.0 NE 3.2 0.0
02:55 -0.6 88.0 1020.5 3.2 NE 3.2 0.0
03:00 -0.7 88.0 1020.4 1.6 NE 4.8 0.0
03:05 -0.9 88.0 1020.5 3.2 NE 4.8 0.0
03:10 -1.1 88.0 1020.2 3.2 NE 4.8 0.0
03:15 -1.1 89.0 1020.3 1.6 NE 6.4 0.0
03:20 -1.1 89.0 1020.4 4.8 E 6.4 0.0
03:25 -1.2 89.0 1020.1 3.2 E 6.4 0.0
03:30 -1.3 89.0 1020.1 4.8 NNE 4.8 0.0
03:35 -1.2 89.0 1020.1 0.0 NE 6.4 0.0
03:40 -1.2 89.0 1020.1 0.0 NE 6.4 0.0
03:45 -0.9 90.0 1020.0 1.6 NNE 4.8 0.0
03:50 -0.7 90.0 1019.9 1.6 NNE 4.8 0.0
03:55 -0.7 90.0 1019.7 3.2 NNE 4.8 0.0
04:00 -0.6 90.0 1019.6 1.6 NNE 4.8 0.0
04:05 -0.4 90.0 1019.7 0.0 NNE 3.2 0.0
04:10 -0.4 90.0 1019.7 0.0 NNE 3.2 0.0
04:15 -0.2 90.0 1019.6 0.0 NNE 1.6 0.0
04:20 -0.2 90.0 1019.5 0.0 NNE 3.2 0.0
04:25 -0.1 90.0 1019.6 0.0 NE 3.2 0.0
04:25 -0.1 90.0 1019.5 1.6 NE 3.2 0.0
04:30 0.0 90.0 1019.6 1.6 SW 4.8 0.0
04:35 0.1 90.0 1019.6 1.6 SW 4.8 0.0
04:40 0.3 90.0 1019.7 0.0 SW 3.2 0.0
04:45 0.3 90.0 1019.7 1.6 SW 3.2 0.0
04:50 0.4 90.0 1019.6 1.6 SSW 4.8 0.0
04:55 0.5 90.0 1019.5 1.6 SSW 4.8 0.0
05:00 0.6 90.0 1019.6 0.0 SSW 3.2 0.0
05:05 0.7 90.0 1019.6 3.2 S 3.2 0.0
05:10 0.7 90.0 1019.5 1.6 NW 4.8 0.0
05:15 0.7 90.0 1019.8 0.0 NW 4.8 0.0
05:20 0.8 90.0 1019.7 0.0 NW 3.2 0.0
05:25 0.9 90.0 1019.7 0.0 NW 0.0 0.0
05:30 0.9 90.0 1019.9 1.6 NW 3.2 0.0
05:35 1.1 90.0 1019.8 1.6 NW 3.2 0.0
05:40 1.1 90.0 1019.9 1.6 NW 3.2 0.0
05:45 1.1 90.0 1019.9 0.0 NW 3.2 0.0
05:50 1.1 89.0 1019.8 3.2 NW 3.2 0.0
05:55 1.0 89.0 1019.8 0.0 NW 3.2 0.0
06:00 0.9 89.0 1019.9 1.6 NW 1.6 0.0
06:05 0.9 89.0 1019.7 1.6 NW 3.2 0.0
06:10 0.9 89.0 1019.6 0.0 NW 3.2 0.0
06:15 0.9 89.0 1019.6 0.0 NW 3.2 0.0
06:20 0.9 89.0 1019.5 0.0 NW 3.2 0.0
06:25 1.0 89.0 1019.5 0.0 NW 3.2 0.0
06:30 1.1 89.0 1019.5 0.0 NW 3.2 0.0
06:35 1.1 89.0 1019.5 1.6 NW 3.2 0.0
06:40 1.1 89.0 1019.5 3.2 WNW 3.2 0.0
06:45 1.1 89.0 1019.5 3.2 WSW 4.8 0.0
06:50 1.2 89.0 1019.4 0.0 WSW 4.8 0.0
06:55 1.3 89.0 1019.3 1.6 WSW 4.8 0.0
07:00 1.4 89.0 1019.3 3.2 S 6.4 0.0
07:05 1.4 89.0 1019.2 0.0 SSE 8.0 0.0
07:10 1.6 89.0 1019.2 1.6 SSE 4.8 0.0
07:15 1.7 89.0 1019.2 1.6 SSE 3.2 0.0
07:20 1.7 89.0 1019.3 1.6 SSE 4.8 0.0
07:30 1.8 89.0 1019.2 0.0 SSE 3.2 0.0
07:35 1.8 88.0 1019.1 1.6 SSE 4.8 0.0
07:40 1.9 88.0 1019.2 1.6 SSE 4.8 0.0
07:45 1.9 88.0 1019.1 0.0 SSE 3.2 0.0
07:50 2.0 88.0 1019.2 0.0 SSE 4.8 0.0
07:55 2.1 88.0 1019.1 1.6 S 4.8 0.0
08:00 2.2 88.0 1019.2 0.0 S 3.2 0.0
08:00 2.3 87.0 1019.0 1.6 S 3.2 0.0
08:10 2.4 87.0 1019.0 0.0 SSE 3.2 0.0
08:15 2.5 87.0 1019.0 1.6 SSE 3.2 0.0
08:20 2.4 87.0 1018.9 1.6 S 3.2 0.0
08:25 2.4 86.0 1019.1 0.0 S 3.2 0.0
08:30 2.4 86.0 1018.9 3.2 NNE 4.8 0.0
08:35 2.5 86.0 1018.9 3.2 NE 6.4 0.0
08:40 2.7 86.0 1018.7 0.0 NE 6.4 0.0
08:45 2.8 86.0 1018.6 0.0 NE 1.6 0.0
08:50 2.9 86.0 1018.5 0.0 NE 1.6 0.0
08:55 3.2 86.0 1018.5 0.0 NE 1.6 0.0
09:00 3.3 85.0 1018.3 1.6 NE 4.8 0.0
09:05 3.4 85.0 1018.3 1.6 NE 4.8 0.0
09:10 3.5 85.0 1018.1 1.6 NE 6.4 0.0
09:15 3.8 85.0 1018.2 0.0 NE 6.4 0.0
09:20 4.1 85.0 1018.2 0.0 NE 6.4 0.0
09:25 4.3 85.0 1018.3 0.0 NE 3.2 0.0
09:30 4.4 85.0 1018.2 0.0 NE 1.6 0.0
09:35 4.5 84.0 1018.3 0.0 NE 1.6 0.0
09:40 4.4 84.0 1018.4 0.0 NE 1.6 0.0
09:45 4.6 84.0 1018.3 0.0 NE 4.8 0.0
09:50 4.8 84.0 1018.2 3.2 NE 4.8 0.0
09:55 5.1 85.0 1018.1 1.6 NE 4.8 0.0
09:55 5.2 84.0 1018.1 3.2 NE 4.8 0.0
10:05 5.4 84.0 1017.9 3.2 NE 3.2 0.0
10:10 5.7 83.0 1018.0 1.6 NE 4.8 0.0
10:15 6.1 83.0 1017.8 1.6 NE 3.2 0.0
10:20 6.3 82.0 1017.7 3.2 ENE 4.8 0.0
10:25 6.6 81.0 1017.6 3.2 NE 4.8 0.0
10:30 7.0 82.0 1017.4 6.4 ENE 6.4 0.0
10:35 7.3 81.0 1017.5 3.2 ENE 9.7 0.0
10:40 7.6 80.0 1017.5 1.6 NE 6.4 0.0
10:45 7.4 78.0 1017.4 3.2 NNE 6.4 0.0
10:50 7.6 80.0 1017.3 3.2 E 8.0 0.0
10:55 8.1 79.0 1017.5 3.2 NNE 8.0 0.0
11:00 8.0 77.0 1017.3 6.4 ENE 8.0 0.0
11:05 8.5 78.0 1017.2 3.2 N 6.4 0.0
11:10 9.1 78.0 1017.1 3.2 E 6.4 0.0
11:15 9.1 76.0 1017.0 4.8 ENE 6.4 0.0
11:20 9.8 75.0 1016.8 1.6 ENE 9.7 0.0
11:20 9.8 74.0 1016.9 8.0 NE 8.0 0.0
11:25 8.9 74.0 1016.9 3.2 E 12.9 0.0
11:30 8.8 76.0 1016.8 3.2 NE 8.0 0.0
11:35 8.8 76.0 1016.7 1.6 NNE 6.4 0.0
11:40 8.8 76.0 1016.8 6.4 NE 8.0 0.0
11:45 8.9 75.0 1016.6 3.2 E 8.0 0.0
11:50 9.3 75.0 1016.6 3.2 ENE 8.0 0.0
11:55 9.2 75.0 1016.4 0.0 ENE 6.4 0.0
12:00 9.3 76.0 1016.3 0.0 ENE 4.8 0.0
12:05 9.4 75.0 1016.2 3.2 ENE 4.8 0.0
12:10 9.4 75.0 1016.1 4.8 E 8.0 0.0
12:15 9.4 75.0 1015.6 4.8 NE 9.7 0.0
12:20 9.3 75.0 1015.4 6.4 ENE 9.7 0.0
12:25 9.3 74.0 1015.6 3.2 ENE 9.7 0.0
12:30 9.4 73.0 1015.7 1.6 NE 6.4 0.0
12:35 9.6 74.0 1015.8 0.0 W 6.4 0.0
12:40 9.6 73.0 1015.5 3.2 WNW 4.8 0.0
12:45 9.4 73.0 1015.5 0.0 WNW 4.8 0.0
12:50 9.3 73.0 1015.5 1.6 WNW 4.8 0.0
12:55 9.3 74.0 1015.8 1.6 WNW 4.8 0.0
13:00 9.1 74.0 1015.8 0.0 WNW 4.8 0.0
13:05 9.1 75.0 1015.8 3.2 WNW 4.8 0.0
13:10 9.1 75.0 1015.7 1.6 WNW 4.8 0.0
13:15 9.0 74.0 1015.7 0.0 WNW 3.2 0.0
13:20 8.9 75.0 1015.6 3.2 WNW 3.2 0.0
13:25 8.8 75.0 1015.5 0.0 WNW 3.2 0.0
13:35 8.8 76.0 1015.2 1.6 WNW 3.2 0.0
13:40 8.7 76.0 1015.3 0.0 WNW 1.6 0.0
13:45 8.7 77.0 1015.4 0.0 WNW 3.2 0.0
13:50 8.7 77.0 1015.5 1.6 NW 3.2 0.0
13:55 8.7 76.0 1015.8 0.0 NW 3.2 0.0
14:00 8.7 76.0 1015.6 0.0 NW 3.2 0.0
14:05 8.6 77.0 1015.3 0.0 NW 1.6 0.0
14:10 8.6 77.0 1015.2 0.0 NW 1.6 0.0
14:10 8.6 77.0 1015.2 0.0 NW 1.6 0.0
14:15 8.5 77.0 1015.1 0.0 NW 1.6 0.0
14:25 8.4 77.0 1015.3 1.6 NW 3.2 0.0
14:30 8.4 78.0 1015.2 0.0 NW 3.2 0.0
14:35 8.3 79.0 1014.9 0.0 NW 1.6 0.0
14:35 8.2 78.0 1014.9 0.0 NW 1.6 0.0
14:45 8.3 78.0 1015.0 0.0 NW 1.6 0.0
14:50 8.3 79.0 1014.9 1.6 NW 1.6 0.0
14:55 8.2 79.0 1015.0 1.6 NW 3.2 0.0
14:55 8.2 79.0 1015.1 0.0 NW 3.2 0.0
15:05 8.0 79.0 1015.1 0.0 NW 3.2 0.0
15:10 7.8 80.0 1015.1 0.0 NW 1.6 0.0
15:15 7.7 80.0 1015.1 0.0 NW 1.6 0.0
15:20 7.7 80.0 1015.1 0.0 NW 1.6 0.0
15:25 7.7 80.0 1015.0 0.0 NW 1.6 0.0
15:30 7.7 80.0 1015.1 0.0 NW 1.6 0.0
15:35 7.7 80.0 1015.2 0.0 NW 0.0 0.0
15:40 7.7 80.0 1015.2 0.0 NW 3.2 0.0
15:45 7.6 80.0 1015.2 0.0 NW 3.2 0.0
Máxima 9.9 90.0 1022.0 8.0 NE 12.9 0.0
Mínima -1.3 73.0 1014.9
Total 0.0